Regional Weather Roundup
Issued by NWS

Home | Current Version | Previous Version | Graphics & Text | Print | Product List | Glossary Off
Versions: 1 2 3 4 5 6 7 8 9 10 11 12 13 14 15 16 17 18 19 20 21 22 23 24 25 26 27 28 29 30 31 32 33 34 35 36 37 38 39 40 41 42 43 44 45 46 47 48 49 50

000
ASUS43 KTOP 301108
RWRKS

WEATHER ROUNDUP FOR KANSAS
NATIONAL WEATHER SERVICE GOODLAND KS
600 AM CDT THU MAR 30 2017

NOTE:  "FAIR" INDICATES FEW OR NO CLOUDS BELOW 12,000 FEET WITH NO
SIGNIFICANT WEATHER AND/OR OBSTRUCTIONS TO VISIBILITY.

KSZ001>006-013>018-027>032-041>047-301200-
NORTHWEST KANSAS

CITY           SKY/WX    TMP DP  RH WIND       PRES   REMARKS
GOODLAND       CLOUDY    35  34  96 N10       29.80F FOG     WCI  27
HAYS             N/A     39  36  89 N21G26    29.75R WCI  29
HILL CITY      CLOUDY    40  38  93 N15       29.79S WCI  32
RUSSELL        CLOUDY    39  36  89 N20G31    29.71S WCI  29
$$

KSZ061>065-074>080-084>089-301200-
SOUTHWEST KANSAS

CITY           SKY/WX    TMP DP  RH WIND       PRES   REMARKS
DODGE CITY     CLOUDY    40  38  93 NW18G28   29.77S WCI  31
ELKHART          N/A     36  28  73 W8          N/A
GARDEN CITY    CLOUDY    39  36  89 N20G28    29.81S WCI  29
GREAT BEND     CLOUDY    40  37  89 NW20G29   29.72S WCI  30
LIBERAL        CLEAR     36  30  80 NW9       29.83F
PRATT          CLOUDY    38  35  89 NW24G32   29.71S WCI  27
$$

KSZ066>073-081>083-090>101-301200-
SOUTHEAST KANSAS

CITY           SKY/WX    TMP DP  RH WIND       PRES   REMARKS
CHANUTE        CLOUDY    46  44  93 SW14      29.55F
COFFEYVILLE    LGT RAIN  46  44  93 SW14      29.60F FOG
MEDICINE LODGE   N/A     43  37  79 NW18G28   29.70S
NEWTON         LGT RAIN  41  39  93 NW23G32   29.61R
PARSONS        LGT RAIN  46  45  96 SW10      29.59S FOG
WICHITA INTL   DRIZZLE   42  42 100 NW21      29.63F
WICHITA JABRA  LGT RAIN  41  40  96 NW22G30   29.61S
WICHITA MCCONL LGT RAIN  41  39  93 NW18G26   29.62S
WINFIELD       CLOUDY    43  40  89 NW16G24   29.64S
$$

KSZ007>012-019>026-033>040-048>060-102>105-301200-
NORTHEAST KANSAS

CITY           SKY/WX    TMP DP  RH WIND       PRES   REMARKS
CONCORDIA      LGT RAIN  39  39 100 N18G29    29.67S WCI  30
EMPORIA        LGT RAIN  45  45 100 W13       29.51F
LAWRENCE       LGT RAIN  48  48 100 E8        29.55S FOG
MANHATTAN      LGT RAIN  45  43  93 N12G24    29.58R
MARYSVILLE     LGT RAIN  43  41  93 N14G23    29.62R
OLATHE IND     CLOUDY    47  45  93 S9        29.55S
OLATHE EXE     CLOUDY    47  45  93 S12       29.55S
SALINA         RAIN      43  40  89 N23G33    29.65R
TOPEKA BILLARD LGT RAIN  49  48  97 SE3       29.54S
TOPEKA FORBES  CLOUDY    48  48 100 SE3       29.53S FOG
$$




USA.gov is the U.S. government's official web portal to all federal, state and local government web resources and services.